Lordsburg, NM

8:44 PM MST on February 21, 2018 (GMT -0700)
Lordsburg

Weather History for KLSB - June, 2013

Change the Weather History Date:

Sunday, June 2, 2013

  Actual Average Record
Temperature  
Mean Temperature 84 °F -  
Max Temperature 98 °F 92 °F 100 °F (2014)
Min Temperature 69 °F 51 °F 57 °F (2015)
Cooling Degree Days 18    
Growing Degree Days 34 (Base 50)    
Moisture  
Dew Point 34 °F    
Average Humidity 19    
Maximum Humidity 36    
Minimum Humidity 7    
Precipitation  
Precipitation 0.00 in - - ()
Sea Level Pressure  
Sea Level Pressure 29.94 in    
Wind  
Wind Speed 13 mph (SE)    
Max Wind Speed 24 mph    
Max Gust Speed 34 mph    
Visibility 10 miles    
Events      
Averages and records for this station are not official NWS values.
T = Trace of Precipitation, MM = Missing Value Source: NWS Daily Summary

Daily Weather History Graph

Daily Weather History Graph

Search for Another Location

Airport or City:

Trip Planner

Search our weather history database for the weather conditions in past years. The results will help you decide how hot, cold, wet, or windy it might be!

Date:

Astronomy

Jun. 02, 2013 Rise Set
Actual Time 6:03 AM MDT 8:22 PM MDT
Civil Twilight 5:34 AM MDT 8:51 PM MDT
Nautical Twilight 4:58 AM MDT 9:27 PM MDT
Astronomical Twilight 4:20 AM MDT 10:05 PM MDT
Moon 2:18 AM MDT (6/2) 3:08 PM MDT (6/2)
Length of Visible Light 15h 17m
Length of Day
14h 19m
Waning Crescent, 30% of the Moon is Illuminated
Jun 2
Waning Crescent
Jun 8
New
Jun 16
First Quarter
Jun 23
Full
Jun 29
Last Quarter

Hourly Weather History & Observations

Time (MDT) Temp. Dew Point Humidity Pressure Visibility Wind Dir Wind Speed Gust Speed Precip Events Conditions
12:15 AM 71.6 °F 14.0 °F 11% 29.97 in 10.0 mi SSE 9.2 mph - N/A   Clear
12:35 AM 71.6 °F 14.0 °F 11% 29.97 in 10.0 mi SE 9.2 mph - N/A   Clear
12:55 AM 69.8 °F 14.0 °F 12% 29.97 in 10.0 mi SE 8.1 mph - N/A   Clear
1:15 AM 69.8 °F 14.0 °F 12% 29.98 in 10.0 mi SE 9.2 mph - N/A   Clear
1:35 AM 69.8 °F 14.0 °F 12% 29.98 in 10.0 mi SE 10.4 mph - N/A   Clear
1:55 AM 69.8 °F 15.8 °F 13% 29.98 in 10.0 mi SE 10.4 mph - N/A   Clear
2:15 AM 69.8 °F 17.6 °F 14% 29.98 in 10.0 mi SE 9.2 mph - N/A   Clear
2:35 AM 69.8 °F 21.2 °F 16% 29.98 in 10.0 mi ESE 11.5 mph - N/A   Clear
2:55 AM 71.6 °F 28.4 °F 20% 29.98 in 10.0 mi ESE 12.7 mph - N/A   Clear
3:15 AM 73.4 °F 32.0 °F 22% 29.98 in 10.0 mi ESE 13.8 mph 20.7 mph N/A   Clear
3:35 AM 73.4 °F 32.0 °F 22% 29.98 in 10.0 mi ESE 15.0 mph 21.9 mph N/A   Clear
3:55 AM 73.4 °F 35.6 °F 25% 29.99 in 10.0 mi ESE 16.1 mph 25.3 mph N/A   Clear
4:15 AM 73.4 °F 37.4 °F 27% 29.99 in 10.0 mi ESE 13.8 mph 24.2 mph N/A   Clear
4:35 AM 73.4 °F 37.4 °F 27% 29.98 in 10.0 mi ESE 17.3 mph 27.6 mph N/A   Clear
4:55 AM 73.4 °F 37.4 °F 27% 29.98 in 10.0 mi SE 20.7 mph 29.9 mph N/A   Clear
5:15 AM 71.6 °F 37.4 °F 29% 29.98 in 10.0 mi SE 15.0 mph 19.6 mph N/A   Clear
5:35 AM 71.6 °F 39.2 °F 31% 29.98 in 10.0 mi North - - N/A   Clear
5:55 AM 71.6 °F 41.0 °F 33% 29.99 in 10.0 mi East 16.1 mph 21.9 mph N/A   Clear
6:15 AM 71.6 °F 42.8 °F 35% 30.00 in 10.0 mi East 23.0 mph 27.6 mph N/A   Clear
6:35 AM 73.4 °F 42.8 °F 33% 30.00 in 10.0 mi ESE 13.8 mph 28.8 mph N/A   Clear
6:55 AM 73.4 °F 42.8 °F 33% 30.01 in 10.0 mi SE 15.0 mph 26.5 mph N/A   Clear
7:15 AM 73.4 °F 44.6 °F 36% 30.01 in 10.0 mi ESE 16.1 mph 20.7 mph N/A   Clear
7:35 AM 75.2 °F 44.6 °F 34% 30.02 in 10.0 mi ESE 17.3 mph 28.8 mph N/A   Clear
7:55 AM 77.0 °F 44.6 °F 32% 30.02 in 10.0 mi ESE 17.3 mph 21.9 mph N/A   Clear
8:15 AM 77.0 °F 44.6 °F 32% 30.03 in 10.0 mi ESE 18.4 mph 26.5 mph N/A   Clear
8:35 AM 78.8 °F 44.6 °F 30% 30.03 in 10.0 mi ESE 18.4 mph 29.9 mph N/A   Clear
8:55 AM 78.8 °F 46.4 °F 32% 30.03 in 10.0 mi ESE 21.9 mph 29.9 mph N/A   Clear
9:15 AM 80.6 °F 46.4 °F 30% 30.03 in 10.0 mi ESE 24.2 mph 34.5 mph N/A   Clear
9:35 AM 80.6 °F 46.4 °F 30% 30.03 in 10.0 mi ESE 21.9 mph 33.4 mph N/A   Clear
9:55 AM 80.6 °F 46.4 °F 30% 30.03 in 10.0 mi SE 16.1 mph 24.2 mph N/A   Clear
10:15 AM 82.4 °F 46.4 °F 28% 30.03 in 10.0 mi SE 20.7 mph 27.6 mph N/A   Clear
10:35 AM 82.4 °F 46.4 °F 28% 30.03 in 10.0 mi ESE 21.9 mph 27.6 mph N/A   Clear
10:55 AM 86.0 °F 46.4 °F 25% 30.03 in 10.0 mi East 18.4 mph 26.5 mph N/A   Clear
11:15 AM 86.0 °F 46.4 °F 25% 30.03 in 10.0 mi SE 19.6 mph 26.5 mph N/A   Clear
11:35 AM 87.8 °F 46.4 °F 24% 30.02 in 10.0 mi ESE 17.3 mph 25.3 mph N/A   Clear
11:55 AM 89.6 °F 46.4 °F 22% 30.01 in 10.0 mi East 16.1 mph 24.2 mph N/A   Clear
12:15 PM 89.6 °F 46.4 °F 22% 30.01 in 10.0 mi SE 16.1 mph 24.2 mph N/A   Clear
12:35 PM 91.4 °F 44.6 °F 20% 30.00 in 10.0 mi SE 18.4 mph 23.0 mph N/A   Clear
12:55 PM 91.4 °F 44.6 °F 20% 29.99 in 10.0 mi ESE 12.7 mph 20.7 mph N/A   Clear
1:15 PM 93.2 °F 44.6 °F 19% 29.97 in 10.0 mi East 6.9 mph 23.0 mph N/A   Clear
1:35 PM 95.0 °F 41.0 °F 15% 29.97 in 10.0 mi East 8.1 mph 19.6 mph N/A   Clear
1:55 PM 95.0 °F 37.4 °F 13% 29.95 in 10.0 mi ESE 6.9 mph 17.3 mph N/A   Clear
2:15 PM 95.0 °F 39.2 °F 14% 29.94 in 10.0 mi ESE 8.1 mph - N/A   Clear
2:35 PM 96.8 °F 37.4 °F 13% 29.93 in 10.0 mi ESE 10.4 mph 19.6 mph N/A   Clear
2:55 PM 96.8 °F 37.4 °F 13% 29.92 in 10.0 mi SE 6.9 mph 19.6 mph N/A   Clear
3:15 PM 95.0 °F 37.4 °F 13% 29.91 in 10.0 mi East 10.4 mph - N/A   Clear
3:35 PM 95.0 °F 37.4 °F 13% 29.90 in 10.0 mi ENE 6.9 mph - N/A   Clear
3:55 PM 98.6 °F 35.6 °F 11% 29.89 in 10.0 mi SSE 11.5 mph 16.1 mph N/A   Clear
4:15 PM 96.8 °F 32.0 °F 10% 29.88 in 10.0 mi West 4.6 mph - N/A   Clear
4:35 PM 96.8 °F 32.0 °F 10% 29.86 in 10.0 mi NNE 3.5 mph - N/A   Clear
4:55 PM 98.6 °F 23.0 °F 7% 29.86 in 10.0 mi SSE 9.2 mph 21.9 mph N/A   Clear
5:15 PM 98.6 °F 23.0 °F 7% 29.84 in 10.0 mi North - - N/A   Clear
5:35 PM 98.6 °F 26.6 °F 8% 29.84 in 10.0 mi West 19.6 mph 23.0 mph N/A   Clear
5:55 PM 98.6 °F 26.6 °F 8% 29.83 in 10.0 mi West 17.3 mph 24.2 mph N/A   Clear
6:15 PM 98.6 °F 26.6 °F 8% 29.82 in 10.0 mi WNW 16.1 mph 21.9 mph N/A   Clear
6:35 PM 96.8 °F 24.8 °F 8% 29.82 in 10.0 mi West 18.4 mph 23.0 mph N/A   Clear
6:55 PM 96.8 °F 28.4 °F 9% 29.82 in 10.0 mi West 9.2 mph 18.4 mph N/A   Clear
7:15 PM 96.8 °F 30.2 °F 10% 29.82 in 10.0 mi North - - N/A   Clear
7:35 PM 95.0 °F 28.4 °F 9% 29.82 in 10.0 mi North - - N/A   Clear
7:55 PM 93.2 °F 28.4 °F 10% 29.83 in 10.0 mi WNW 10.4 mph - N/A   Clear
8:15 PM 91.4 °F 28.4 °F 10% 29.84 in 10.0 mi North - - N/A   Clear
8:35 PM 89.6 °F 30.2 °F 12% 29.84 in 10.0 mi West 13.8 mph 18.4 mph N/A   Clear
8:55 PM 89.6 °F 30.2 °F 12% 29.84 in 10.0 mi West 11.5 mph - N/A   Clear
9:15 PM 87.8 °F 28.4 °F 12% 29.85 in 10.0 mi West 11.5 mph - N/A   Clear
9:35 PM 86.0 °F 28.4 °F 12% 29.86 in 10.0 mi West 9.2 mph - N/A   Clear
9:55 PM 84.2 °F 30.2 °F 14% 29.88 in 10.0 mi West 10.4 mph - N/A   Clear
10:15 PM 82.4 °F 30.2 °F 15% 29.89 in 10.0 mi West 8.1 mph - N/A   Clear
10:35 PM 86.0 °F 28.4 °F 12% 29.89 in 10.0 mi West 12.7 mph - N/A   Clear
10:55 PM 84.2 °F 28.4 °F 13% 29.90 in 10.0 mi West 11.5 mph - N/A   Clear
11:15 PM 84.2 °F 28.4 °F 13% 29.91 in 10.0 mi West 11.5 mph - N/A   Clear
11:35 PM 80.6 °F 28.4 °F 15% 29.92 in 10.0 mi North - - N/A   Clear
11:55 PM 78.8 °F 28.4 °F 16% 29.92 in 10.0 mi West 8.1 mph - N/A   Clear